Погода Николаевское

Поиск расширенной информации на нашем сайте:

Полезная информация:

Новости сайта



02.01.2020
Опубликован Долгосрочный прогноз погоды по городам России и ближнего зарубежья на январь 2020 года.
Карты: Прогноз на январь и февраль 2020 года, Сравнение прогнозируемой аномалии приземной температуры воздуха на январь 2020 года по разным моделям.




Погода Николаевское - сегодня

Время (UTC), дата Ветер
(°,м/с) 
Видим.   Явления Облачность Т
(°С)
Тd
(°С)
f(%) Тe
(°С)
Pmin
(гПа)
dP
(гПа)
Po
(мм)
O2
(г/м3)
Тmin Tmax R s Состояние
почвы
00 29.11.20 050 (СВ) 13000 м  слаб. снег  10/10 300 м 
[St]
+0 -1.4 90 -1  1029.4  0.2  763  308           
03 29.11.20 050 (СВ) 8000 м  снег  10/10 270 м 
[St]
-0.8 -1.5 95 -2  1029.8  0.3  763  309  -0.8    0.0     
06 29.11.20 060 (СВ) 11000 м  {снег}  10/10 300 м 
[St]
-0.9 -2.2 91 -2  1029.4  -0.5  763  309  -0.9    0.0  <0.5  мокрый или
старый снег
50-90% 
09 29.11.20 040 (СВ) 12000 м    10/0 средняя 
[Ac und]
-0.9 -2.3 90 -3  1029.1  -0.2  763  309           
12 29.11.20 050 (СВ) 18000 м    10/10 400 м 
[St]
-1 -2.8 88 -3  1027.5  -1.5  762  308           
15 29.11.20 040 (СВ) 3500 м  снег  10/10 360 м 
[Frnb|Ns]
-1.4 -2.1 95 -3  1026.6  -1  761  308      0.5     
18 29.11.20 040 (СВ) 4000 м  снег  10/10 270 м 
[Frnb|Ns]
-1 -1.6 96 -2  1025.4  -1.1  760  308    -0.7     
21 29.11.20 060 (СВ) 3000 м  снег  10/10 180 м 
[Frnb|Ns]
-0.6 -1 97 -2  1023.9  -1.5  759  307           
00 30.11.20 070 (В) 8000 м  слаб. снег  10/10 180 м 
[Frnb|Ns]
+0.1 -0.2 98 -1  1022.7  -1.1  758  305           
03 30.11.20 130 (ЮВ) 16000 м  в посл. час снег  10/10 180 м 
[Frnb|Ns]
+0.5 +0.2 98 1022.2  -0.5  758  305  -1.4       
06 30.11.20 150 (ЮВ) 17000 м  в посл. час снег  10/10 840 м 
[Sc]
+0.3 -0.4 95 1022.4  0.2  758  305  -1    равномерный
мокрый или
старый снег
100% 
09 30.11.20 160 (Ю) 17000 м    10/10 360 м 
[St]
+0.4 -1.1 90 -1  1022.5  0.1  758  305           
12 30.11.20 160 (Ю) 17000 м  {снег}  10/10 420 м 
[St]
+0.2 -1.4 89 -1  1021.4  -1.2  757  305           
15 30.11.20 140 (ЮВ) 9000 м  слаб. ливневой снег  10/10 720 м кучево-дожд. 
[Cb cap]
-0.1 -0.9 94 -1  1020.3  -1  756  305      0.0     
18 30.11.20 160 (Ю) 8000 м  слаб. ливневой снег  9/9 450 м кучево-дожд. 
[Cb cap]
-0.3 -1.1 94 -2  1019.5  -0.8  756  305    +0.7  0.0     
21 30.11.20 160 (Ю) 4000 м  снег{ливн. осадки}  10/10 420 м 
[Frnb|Ns]
-0.3 -1.1 94 -3  1019.1  -0.5  755  305           
00 01.12.20 180 (Ю) 2800 м  снег{ливн. осадки}  10/10 180 м 
[Frnb|Ns]
-0.2 -0.8 96 -2  1019.1  0.1  756  305           
03 01.12.20 200 (Ю) 5000 м  слаб. снег  10/10 270 м 
[Frnb|Ns]
+0.1 -0.3 97 -2  1020.4  1.2  756  305  -0.6       
06 01.12.20 200 (Ю) 16000 м  {снег}  10/10 270 м 
[Frnb|Ns]
+0.5 -0.4 94 -2  1022.6  2.3  758  305  -0.3      неравномерный
сухой снег
100% 
09 01.12.20 210 (ЮЗ) 13000 м  слаб. дождь{снег}  10/10 180 м 
[St]
+0.5 -0.2 95 -2  1024.9  2.3  760  306           
12 01.12.20 190 (Ю) 9000 м  слаб. снег{дождь}  10/10 240 м 
[Frnb|Ns]
+0.4 -0.2 96 -1  1026.3  1.3  761  306           
15 01.12.20 190 (Ю) 9000 м  слаб. снег  10/10 240 м 
[Frnb|Ns]
+0.2 -0.2 97 -2  1028.2  1.9  762  307      0.2     
21 01.12.20 220 (ЮЗ) 5000 м  слаб. снег  10/10 150 м 
[Frnb|Ns]
+0.6 +0 96 -1  1030.9  1.4  764  307           
00 02.12.20 220 (ЮЗ) 8000 м  дымка{снег}  10/10 240 м 
[Frnb|Ns]
+0.4 -0.4 94 -1  1032.1  1.1  765  308           
03 02.12.20 210 (ЮЗ) 9000 м  дымка{снег}  10/10 150 м 
[Frnb|Ns]
-0.6 -1.4 94 -3  1032.8  0.7  766  309  -0.6    0.1     
Время (UTC), дата Ветер
(°,м/с) 
Видим.   Явления Облачность Т
(°С)
Тd
(°С)
f(%) Тe
(°С)
Pmin
(гПа)
dP
(гПа)
Po
(мм)
O2
(г/м3)
Тmin Tmax R s Состояние
почвы

Для получения пояснительной информации подведите курсор к названию столбца.

ПОГОДА Николаевское - архив

Всё, что Вы хотите узнать о погоде Николаевское - удобно и подробно!

Выберите нужную дату (начиная с 1 января 2019* года) и нажмите кнопку "Найти".
Будут отображены архивные сводки погоды по пункту Николаевское, начиная с указанной даты.


Отображать данные в формате CSV (для использования в таблицах Excel)


Внимание! Наш архив погоды предназначен исключительно для личного некоммерческого использования в познавательных целях. Если Вам необходимы официальные справки о состоянии погоды (для производственных, юридических, коммерческих и т.п. целей), обращайтесь в органы Росгидромета.

*Примечание: данная дата относится к архиву по метеостанциям СССР (Россия, СНГ, Балтия).
Архив по метеостанциям Зарубежной Европы и Азии (кроме Китая) хранится 10 дней, по другим регионам земного шара (Китай, Африка, Америка, Австралия, Океания) - 1 день.

Николаевское - район местоположения метеостанции


Название, широта, долгота, высота метеостанции:
Николаевское 58.6°ш. 29.8°д. 91 м над ур. моря [Российская Федерация]

Дополнительная информация

В oтличие oт бoльшинства пoгoдных сайтoв мы публикуем пoдрoбную метеoинфoрмацию в детальнoм прoфессиoнальнoм фoрмате.

Характеристики температуры и влажнoсти вoздуха измеряются на высoте 2 м в тени вдали oт зданий и деревьев.
Скoрoсть ветра измеряется на высoте 10 м (на урoвне рoста челoвека скoрoсть ветра ниже в 1.5-2 раза). Если метеoстанция нахoдится в гoрoде или в лесу, тo скoрoсть ветра занижена на 2-4 м/с пo сравнению с oткрытым местoм. Скoрoсть ветра над акватoриями крупных рек и oзёр, а также на вершинах хoлмoв на 2-5 м/с выше, чем в oбычных услoвиях.
Атмoсфернoе давление в разных тoчках местнoсти мoжет значительнo oтличаться oт давления на метеoстанции, в зависимoсти oт услoвий рельефа (при пoдъёме на 10 м давление пoнижается примернo на 1 мм рт.ст.).